| time (UTC) | temp F | wind direction | speed MPH | gust MPH | rain 1hr in | rain 24hr in | rain mn in | humidity % | barometer mb |
| 20260904013301 | 83 | 159 | 2.0 | 4.0 | 0.00 | 0.00 | 0.00 | 67 | 1011.2 |
| 20260904012801 | 84 | 4 | 2.0 | 7.0 | 0.00 | 0.00 | 0.00 | 66 | 1011.1 |
| 20260904012301 | 84 | 58 | 2.0 | 7.0 | 0.00 | 0.00 | 0.00 | 66 | 1011.1 |
| 20260904012042 | 84 | 356 | 2.0 | 6.0 | 0.00 | 0.00 | 0.00 | 66 | 1010.9 |
| 20260904011301 | 84 | 315 | 3.0 | 8.0 | 0.00 | 0.00 | 0.00 | 66 | 1010.8 |
| 20260904011045 | 84 | 25 | 2.0 | 11.0 | 0.00 | 0.00 | 0.00 | 66 | 1010.8 |
| 20260904010301 | 84 | 159 | 3.0 | 11.0 | 0.00 | 0.00 | 0.00 | 66 | 1010.9 |
| 20260904005802 | 84 | 96 | 3.0 | 8.0 | 0.00 | 0.00 | 0.00 | 66 | 1010.9 |
| 20260904005306 | 85 | 335 | 3.0 | 9.0 | 0.00 | 0.00 | 0.00 | 66 | 1010.9 |
| 20260904004801 | 85 | 111 | 3.0 | 9.0 | 0.00 | 0.00 | 0.00 | 66 | 1010.9 |
| 20260904004300 | 85 | 121 | 4.0 | 9.0 | 0.00 | 0.00 | 0.00 | 65 | 1010.9 |
| 20260904003802 | 85 | 98 | 4.0 | 9.0 | 0.00 | 0.00 | 0.00 | 65 | 1010.8 |
| 20260904003301 | 85 | 53 | 4.0 | 10.0 | 0.00 | 0.00 | 0.00 | 65 | 1011.0 |
| 20260904002801 | 85 | 264 | 4.0 | 10.0 | 0.00 | 0.00 | 0.00 | 65 | 1011.0 |
| 20260904002301 | 85 | 28 | 4.0 | 10.0 | 0.00 | 0.00 | 0.00 | 65 | 1010.9 |
| 20260904001801 | 86 | 44 | 4.0 | 9.0 | 0.00 | 0.00 | 0.00 | 65 | 1010.8 |
| 20260904001301 | 86 | 212 | 4.0 | 10.0 | 0.00 | 0.00 | 0.00 | 64 | 1010.7 |
| 20260904000801 | 86 | 123 | 4.0 | 10.0 | 0.00 | 0.00 | 0.00 | 64 | 1010.7 |
| 20260904000300 | 86 | 37 | 4.0 | 10.0 | 0.00 | 0.00 | 0.00 | 64 | 1010.7 |
| 20260904000048 | 87 | 142 | 4.0 | 10.0 | 0.00 | 0.00 | 0.00 | 64 | 1010.7 |
| 20260903235301 | 87 | 41 | 4.0 | 9.0 | 0.00 | 0.00 | 0.00 | 63 | 1010.7 |
| 20260903235041 | 87 | 99 | 4.0 | 9.0 | 0.00 | 0.00 | 0.00 | 63 | 1010.7 |
| 20260903234301 | 88 | 307 | 4.0 | 9.0 | 0.00 | 0.00 | 0.00 | 63 | 1010.5 |
| 20260903234048 | 88 | 112 | 4.0 | 11.0 | 0.00 | 0.00 | 0.00 | 62 | 1010.5 |
| 20260903233301 | 88 | 63 | 4.0 | 11.0 | 0.00 | 0.00 | 0.00 | 62 | 1010.5 |
| 20260903232801 | 88 | 31 | 5.0 | 11.0 | 0.00 | 0.00 | 0.00 | 62 | 1010.4 |
| 20260903232301 | 88 | 68 | 4.0 | 10.0 | 0.00 | 0.00 | 0.00 | 62 | 1010.4 |
| 20260903231801 | 89 | 66 | 4.0 | 11.0 | 0.00 | 0.00 | 0.00 | 63 | 1010.3 |
| 20260903231301 | 89 | 8 | 4.0 | 12.0 | 0.00 | 0.00 | 0.00 | 63 | 1010.4 |
| 20260903230801 | 89 | 44 | 5.0 | 14.0 | 0.00 | 0.00 | 0.00 | 64 | 1010.2 |
| 20260903230300 | 90 | 320 | 5.0 | 14.0 | 0.00 | 0.00 | 0.00 | 63 | 1010.3 |
| 20260903225800 | 90 | 333 | 4.0 | 11.0 | 0.00 | 0.00 | 0.00 | 60 | 1010.3 |
| 20260903225306 | 90 | 48 | 5.0 | 13.0 | 0.00 | 0.00 | 0.00 | 60 | 1010.1 |
| 20260903224800 | 90 | 102 | 6.0 | 13.0 | 0.00 | 0.00 | 0.00 | 62 | 1010.1 |
| 20260903224301 | 91 | 43 | 6.0 | 13.0 | 0.00 | 0.01 | 0.00 | 64 | 1010.0 |
| 20260903223801 | 91 | 35 | 5.0 | 11.0 | 0.00 | 0.01 | 0.00 | 64 | 1010.0 |
| 20260903223300 | 92 | 69 | 5.0 | 13.0 | 0.00 | 0.01 | 0.00 | 62 | 1009.9 |
| 20260903222801 | 92 | 15 | 5.0 | 13.0 | 0.00 | 0.01 | 0.00 | 62 | 1009.9 |
| 20260903222305 | 92 | 180 | 4.0 | 11.0 | 0.00 | 0.01 | 0.00 | 61 | 1010.0 |
| 20260903221801 | 91 | 68 | 5.0 | 12.0 | 0.00 | 0.01 | 0.00 | 61 | 1009.9 |
| 20260903221300 | 92 | 50 | 5.0 | 12.0 | 0.00 | 0.01 | 0.00 | 61 | 1009.9 |
| 20260903220800 | 92 | 104 | 5.0 | 13.0 | 0.00 | 0.01 | 0.00 | 60 | 1010.0 |
| 20260903220301 | 92 | 24 | 5.0 | 13.0 | 0.00 | 0.01 | 0.00 | 59 | 1009.9 |
| 20260903215801 | 93 | 67 | 5.0 | 12.0 | 0.00 | 0.01 | 0.00 | 57 | 1009.8 |
| 20260903215305 | 92 | 103 | 4.0 | 10.0 | 0.00 | 0.01 | 0.00 | 58 | 1009.9 |
| 20260903214801 | 92 | 79 | 4.0 | 12.0 | 0.00 | 0.01 | 0.00 | 58 | 1009.9 |
| 20260903214302 | 92 | 71 | 5.0 | 12.0 | 0.00 | 0.01 | 0.00 | 59 | 1010.0 |
| 20260903213800 | 92 | 72 | 4.0 | 10.0 | 0.00 | 0.01 | 0.00 | 57 | 1009.9 |
| 20260903213301 | 92 | 50 | 5.0 | 11.0 | 0.00 | 0.01 | 0.00 | 56 | 1010.0 |
| 20260903212802 | 92 | 81 | 6.0 | 11.0 | 0.00 | 0.01 | 0.00 | 56 | 1010.0 |
| 20260903212301 | 93 | 79 | 5.0 | 11.0 | 0.00 | 0.01 | 0.00 | 56 | 1010.1 |
| 20260903212051 | 93 | 67 | 4.0 | 11.0 | 0.00 | 0.01 | 0.00 | 55 | 1009.9 |
| 20260903211302 | 93 | 8 | 4.0 | 11.0 | 0.00 | 0.01 | 0.00 | 55 | 1010.1 |
| 20260903211045 | 93 | 17 | 4.0 | 10.0 | 0.00 | 0.01 | 0.00 | 55 | 1010.1 |
| 20260903210302 | 93 | 75 | 4.0 | 10.0 | 0.00 | 0.01 | 0.00 | 55 | 1010.3 |
| 20260903205801 | 94 | 6 | 4.0 | 11.0 | 0.00 | 0.01 | 0.00 | 53 | 1010.3 |
| 20260903205300 | 94 | 7 | 4.0 | 11.0 | 0.00 | 0.01 | 0.00 | 54 | 1010.3 |
| 20260903204800 | 94 | 12 | 4.0 | 8.0 | 0.00 | 0.01 | 0.00 | 54 | 1010.4 |
| 20260903204301 | 94 | 161 | 4.0 | 10.0 | 0.00 | 0.01 | 0.00 | 54 | 1010.4 |
| 20260903203831 | 94 | 240 | 4.0 | 9.0 | 0.00 | 0.01 | 0.00 | 54 | 1010.7 |
| 20260903203819 | 94 | 44 | 4.0 | 10.0 | 0.00 | 0.01 | 0.00 | 54 | 1010.5 |
| 20260903202756 | 94 | 6 | 4.0 | 10.0 | 0.00 | 0.01 | 0.00 | 54 | 1010.8 |
| 20260903202258 | 94 | 358 | 5.0 | 12.0 | 0.00 | 0.01 | 0.00 | 54 | 1011.0 |
| 20260903201757 | 95 | 46 | 4.0 | 12.0 | 0.00 | 0.01 | 0.00 | 54 | 1010.7 |
| 20260903201258 | 95 | 99 | 4.0 | 9.0 | 0.00 | 0.01 | 0.00 | 53 | 1011.0 |
| 20260903200758 | 95 | 21 | 4.0 | 9.0 | 0.00 | 0.01 | 0.00 | 53 | 1011.0 |
| 20260903200258 | 95 | 61 | 3.0 | 8.0 | 0.00 | 0.01 | 0.00 | 52 | 1011.0 |
| 20260903195758 | 95 | 58 | 2.0 | 8.0 | 0.00 | 0.01 | 0.00 | 52 | 1011.1 |
| 20260903195258 | 95 | 99 | 2.0 | 8.0 | 0.00 | 0.01 | 0.00 | 52 | 1011.1 |
| 20260903194758 | 96 | 204 | 3.0 | 8.0 | 0.00 | 0.01 | 0.00 | 52 | 1011.1 |
| 20260903194542 | 96 | 135 | 3.0 | 9.0 | 0.00 | 0.01 | 0.00 | 52 | 1011.1 |
| 20260903194045 | 97 | 90 | 3.0 | 9.0 | 0.00 | 0.01 | 0.00 | 50 | 1011.2 |
| 20260903193258 | 97 | 57 | 3.0 | 7.0 | 0.00 | 0.01 | 0.00 | 50 | 1011.2 |
| 20260903192755 | 96 | 42 | 3.0 | 7.0 | 0.00 | 0.01 | 0.00 | 51 | 1011.3 |
| 20260903192254 | 96 | 207 | 2.0 | 6.0 | 0.00 | 0.01 | 0.00 | 50 | 1011.3 |
| 20260903192042 | 96 | 359 | 2.0 | 5.0 | 0.00 | 0.01 | 0.00 | 51 | 1011.4 |
| 20260903191252 | 95 | 72 | 2.0 | 5.0 | 0.00 | 0.01 | 0.00 | 52 | 1011.5 |
| 20260903190752 | 95 | 143 | 2.0 | 5.0 | 0.00 | 0.01 | 0.00 | 52 | 1011.6 |
| 20260903190251 | 95 | 185 | 3.0 | 7.0 | 0.00 | 0.01 | 0.00 | 52 | 1011.7 |
| 20260903185749 | 96 | 8 | 2.0 | 7.0 | 0.00 | 0.01 | 0.00 | 51 | 1011.8 |
| 20260903185248 | 96 | 44 | 2.0 | 5.0 | 0.00 | 0.01 | 0.00 | 51 | 1011.8 |
| 20260903184749 | 96 | 25 | 2.0 | 7.0 | 0.00 | 0.01 | 0.00 | 51 | 1011.9 |
| 20260903184250 | 96 | 198 | 3.0 | 7.0 | 0.00 | 0.01 | 0.00 | 51 | 1012.0 |
| 20260903183750 | 97 | 33 | 3.0 | 7.0 | 0.00 | 0.01 | 0.00 | 50 | 1012.0 |
| 20260903183250 | 97 | 24 | 3.0 | 10.0 | 0.00 | 0.01 | 0.00 | 48 | 1012.0 |
| 20260903182750 | 96 | 185 | 3.0 | 10.0 | 0.00 | 0.01 | 0.00 | 52 | 1012.2 |
| 20260903182250 | 96 | 61 | 2.0 | 7.0 | 0.00 | 0.01 | 0.00 | 51 | 1012.2 |
| 20260903181749 | 96 | 154 | 2.0 | 7.0 | 0.00 | 0.01 | 0.00 | 51 | 1012.2 |
| 20260903181250 | 96 | 341 | 3.0 | 7.0 | 0.00 | 0.01 | 0.00 | 51 | 1012.4 |
| 20260903180747 | 95 | 313 | 3.0 | 8.0 | 0.00 | 0.01 | 0.00 | 53 | 1012.4 |
| 20260903180247 | 94 | 326 | 3.0 | 8.0 | 0.00 | 0.01 | 0.00 | 54 | 1012.5 |
| 20260903175744 | 94 | 74 | 2.0 | 7.0 | 0.00 | 0.01 | 0.00 | 53 | 1012.5 |
| 20260903175244 | 95 | 1 | 3.0 | 7.0 | 0.00 | 0.01 | 0.00 | 53 | 1012.6 |
| 20260903174745 | 94 | 155 | 2.0 | 7.0 | 0.00 | 0.01 | 0.00 | 52 | 1012.7 |
| 20260903174243 | 93 | 235 | 2.0 | 7.0 | 0.00 | 0.01 | 0.00 | 54 | 1012.8 |
| 20260903173744 | 92 | 59 | 2.0 | 7.0 | 0.00 | 0.01 | 0.00 | 56 | 1012.9 |
| 20260903173244 | 92 | 106 | 2.0 | 5.0 | 0.00 | 0.01 | 0.00 | 56 | 1013.0 |
| 20260903172742 | 92 | 60 | 2.0 | 5.0 | 0.00 | 0.01 | 0.00 | 57 | 1013.1 |
| 20260903172528 | 92 | 311 | 2.0 | 5.0 | 0.00 | 0.01 | 0.00 | 57 | 1013.1 |
| 20260903172027 | 92 | 136 | 2.0 | 6.0 | 0.00 | 0.01 | 0.00 | 57 | 1013.2 |
| 20260903171526 | 92 | 204 | 2.0 | 6.0 | 0.00 | 0.01 | 0.00 | 57 | 1013.2 |
| 20260903171028 | 92 | 230 | 2.0 | 6.0 | 0.00 | 0.01 | 0.00 | 57 | 1013.2 |
| 20260903170241 | 91 | 190 | 2.0 | 6.0 | 0.00 | 0.01 | 0.00 | 57 | 1013.2 |
| 20260903165742 | 91 | 181 | 2.0 | 6.0 | 0.00 | 0.01 | 0.00 | 58 | 1013.1 |
| 20260903165242 | 91 | 181 | 3.0 | 8.0 | 0.00 | 0.01 | 0.00 | 59 | 1013.0 |
| 20260903164739 | 91 | 199 | 3.0 | 8.0 | 0.00 | 0.01 | 0.00 | 60 | 1013.0 |
| 20260903164238 | 91 | 259 | 3.0 | 8.0 | 0.00 | 0.01 | 0.00 | 60 | 1012.9 |
| 20260903163736 | 90 | 193 | 3.0 | 8.0 | 0.00 | 0.01 | 0.00 | 62 | 1012.9 |
| 20260903163236 | 90 | 194 | 3.0 | 8.0 | 0.00 | 0.01 | 0.00 | 61 | 1013.0 |
| 20260903162735 | 89 | 203 | 3.0 | 7.0 | 0.00 | 0.01 | 0.00 | 62 | 1013.0 |
| 20260903162519 | 89 | 197 | 2.0 | 7.0 | 0.00 | 0.01 | 0.00 | 62 | 1013.0 |
| 20260903162020 | 88 | 39 | 3.0 | 9.0 | 0.00 | 0.01 | 0.00 | 63 | 1013.0 |
| 20260903161237 | 88 | 189 | 3.0 | 9.0 | 0.00 | 0.01 | 0.00 | 64 | 1013.0 |
| 20260903160736 | 88 | 237 | 4.0 | 8.0 | 0.00 | 0.01 | 0.00 | 65 | 1012.9 |
| 20260903160236 | 88 | 248 | 4.0 | 9.0 | 0.00 | 0.01 | 0.00 | 65 | 1012.8 |
| 20260903155737 | 88 | 253 | 4.0 | 9.0 | 0.00 | 0.01 | 0.00 | 64 | 1012.7 |
| 20260903155237 | 89 | 206 | 5.0 | 10.0 | 0.00 | 0.01 | 0.00 | 64 | 1012.7 |
| 20260903154736 | 88 | 224 | 5.0 | 10.0 | 0.00 | 0.01 | 0.00 | 65 | 1012.7 |
| 20260903154236 | 88 | 177 | 4.0 | 11.0 | 0.00 | 0.01 | 0.00 | 64 | 1012.8 |
| 20260903153737 | 87 | 227 | 4.0 | 11.0 | 0.00 | 0.01 | 0.00 | 66 | 1012.8 |
| 20260903153238 | 87 | 231 | 3.0 | 11.0 | 0.00 | 0.01 | 0.00 | 67 | 1012.9 |
| 20260903152736 | 87 | 176 | 3.0 | 7.0 | 0.00 | 0.01 | 0.00 | 68 | 1012.9 |
| 20260903152306 | 86 | 233 | 4.0 | 9.0 | 0.00 | 0.01 | 0.00 | 69 | 1012.8 |
| 20260903152255 | 86 | 309 | 4.0 | 9.0 | 0.00 | 0.01 | 0.00 | 69 | 1012.9 |
| 20260903151232 | 85 | 222 | 4.0 | 9.0 | 0.00 | 0.01 | 0.00 | 69 | 1012.8 |
| 20260903150731 | 85 | 228 | 4.0 | 9.0 | 0.00 | 0.01 | 0.00 | 70 | 1012.8 |
| 20260903150230 | 85 | 165 | 4.0 | 9.0 | 0.00 | 0.01 | 0.00 | 72 | 1012.8 |
| 20260903145730 | 85 | 274 | 4.0 | 11.0 | 0.00 | 0.01 | 0.00 | 72 | 1012.8 |
| 20260903145232 | 85 | 202 | 4.0 | 11.0 | 0.00 | 0.01 | 0.00 | 73 | 1012.9 |
| 20260903144732 | 84 | 170 | 4.0 | 11.0 | 0.00 | 0.01 | 0.00 | 74 | 1012.9 |
| 20260903144231 | 84 | 246 | 4.0 | 10.0 | 0.00 | 0.01 | 0.00 | 74 | 1012.7 |
| 20260903143732 | 84 | 231 | 5.0 | 12.0 | 0.00 | 0.01 | 0.00 | 74 | 1012.7 |
| 20260903143232 | 83 | 217 | 5.0 | 12.0 | 0.00 | 0.01 | 0.00 | 75 | 1012.8 |
| 20260903143017 | 83 | 197 | 4.0 | 9.0 | 0.00 | 0.01 | 0.00 | 75 | 1012.8 |
| 20260903142231 | 83 | 239 | 5.0 | 11.0 | 0.00 | 0.01 | 0.00 | 75 | 1012.8 |
| 20260903141802 | 84 | 246 | 6.0 | 10.0 | 0.00 | 0.01 | 0.00 | 75 | 1012.7 |
| 20260903141752 | 84 | 233 | 6.0 | 11.0 | 0.00 | 0.01 | 0.00 | 75 | 1012.8 |
| 20260903140733 | 83 | 227 | 5.0 | 13.0 | 0.00 | 0.01 | 0.00 | 77 | 1012.7 |
| 20260903140511 | 83 | 201 | 5.0 | 13.0 | 0.00 | 0.01 | 0.00 | 77 | 1012.7 |
| 20260903135731 | 83 | 191 | 3.0 | 9.0 | 0.00 | 0.01 | 0.00 | 78 | 1012.7 |
| 20260903135229 | 83 | 170 | 3.0 | 7.0 | 0.00 | 0.01 | 0.00 | 80 | 1012.7 |
| 20260903134727 | 83 | 213 | 4.0 | 7.0 | 0.00 | 0.01 | 0.00 | 80 | 1012.7 |
| 20260903134227 | 83 | 177 | 3.0 | 6.0 | 0.00 | 0.01 | 0.00 | 81 | 1012.7 |
| 20260903133723 | 82 | 247 | 3.0 | 8.0 | 0.00 | 0.01 | 0.00 | 81 | 1012.7 |
| 20260903133527 | 81 | 245 | 3.0 | 7.0 | 0.00 | 0.01 | 0.00 | 84 | 1012.7 |
| 20260903133522 | 82 | 212 | 3.0 | 8.0 | 0.00 | 0.01 | 0.00 | 82 | 1012.7 |
| 20260903132502 | 81 | 230 | 3.0 | 8.0 | 0.00 | 0.01 | 0.00 | 84 | 1012.8 |
| 20260903131751 | 80 | 233 | 3.0 | 8.0 | 0.00 | 0.01 | 0.00 | 85 | 1012.9 |
| 20260903131741 | 81 | 194 | 2.0 | 8.0 | 0.00 | 0.01 | 0.00 | 85 | 1012.9 |
| 20260903130720 | 80 | 178 | 3.0 | 8.0 | 0.00 | 0.01 | 0.00 | 86 | 1012.8 |
| 20260903130221 | 80 | 214 | 2.0 | 6.0 | 0.00 | 0.01 | 0.00 | 86 | 1012.9 |
| 20260903125721 | 80 | 213 | 2.0 | 7.0 | 0.00 | 0.01 | 0.00 | 86 | 1012.8 |
| 20260903125221 | 80 | 235 | 3.0 | 8.0 | 0.00 | 0.01 | 0.00 | 86 | 1012.8 |
| 20260903124721 | 80 | 193 | 3.0 | 8.0 | 0.00 | 0.01 | 0.00 | 86 | 1012.7 |
| 20260903124221 | 80 | 225 | 3.0 | 7.0 | 0.00 | 0.01 | 0.00 | 86 | 1012.6 |
| 20260903123721 | 80 | 238 | 3.0 | 7.0 | 0.00 | 0.01 | 0.00 | 86 | 1012.6 |
| 20260903123215 | 80 | 159 | 3.0 | 7.0 | 0.00 | 0.01 | 0.00 | 86 | 1012.6 |
| 20260903122715 | 80 | 215 | 3.0 | 7.0 | 0.00 | 0.01 | 0.00 | 86 | 1012.6 |
| 20260903122208 | 80 | 295 | 4.0 | 9.0 | 0.00 | 0.01 | 0.00 | 86 | 1012.5 |
| 20260903121740 | 80 | 167 | 4.0 | 10.0 | 0.00 | 0.01 | 0.00 | 86 | 1012.4 |
| 20260903121730 | 80 | 199 | 4.0 | 9.0 | 0.00 | 0.01 | 0.00 | 86 | 1012.4 |
| 20260903120710 | 80 | 228 | 3.0 | 10.0 | 0.00 | 0.01 | 0.00 | 86 | 1012.4 |
| 20260903120210 | 80 | 170 | 3.0 | 8.0 | 0.00 | 0.01 | 0.00 | 86 | 1012.5 |
| 20260903115710 | 80 | 318 | 3.0 | 8.0 | 0.00 | 0.01 | 0.00 | 86 | 1012.5 |
| 20260903115210 | 80 | 260 | 3.0 | 5.0 | 0.00 | 0.01 | 0.00 | 87 | 1012.5 |
| 20260903114709 | 80 | 227 | 2.0 | 5.0 | 0.00 | 0.01 | 0.00 | 86 | 1012.4 |
| 20260903114208 | 80 | 323 | 2.0 | 6.0 | 0.00 | 0.01 | 0.00 | 87 | 1012.4 |
| 20260903113707 | 80 | 233 | 2.0 | 7.0 | 0.00 | 0.01 | 0.00 | 86 | 1012.4 |
| 20260903113206 | 80 | 221 | 2.0 | 7.0 | 0.00 | 0.01 | 0.00 | 86 | 1012.5 |
| 20260903112708 | 80 | 193 | 2.0 | 6.0 | 0.00 | 0.01 | 0.00 | 87 | 1012.5 |
| 20260903112205 | 80 | 209 | 3.0 | 6.0 | 0.00 | 0.01 | 0.00 | 86 | 1012.5 |
| 20260903111704 | 80 | 277 | 3.0 | 6.0 | 0.00 | 0.01 | 0.00 | 86 | 1012.4 |
| 20260903111204 | 80 | 141 | 3.0 | 6.0 | 0.00 | 0.01 | 0.00 | 86 | 1012.4 |
| 20260903110704 | 80 | 217 | 3.0 | 7.0 | 0.00 | 0.01 | 0.00 | 86 | 1012.4 |
| 20260903110205 | 80 | 235 | 3.0 | 7.0 | 0.00 | 0.01 | 0.00 | 86 | 1012.3 |
| 20260903105703 | 80 | 250 | 3.0 | 7.0 | 0.00 | 0.01 | 0.00 | 87 | 1012.3 |
| 20260903105201 | 80 | 218 | 3.0 | 6.0 | 0.00 | 0.01 | 0.00 | 87 | 1012.3 |
| 20260903104935 | 80 | 246 | 2.0 | 5.0 | 0.00 | 0.01 | 0.00 | 87 | 1012.2 |
| 20260903104201 | 80 | 185 | 2.0 | 6.0 | 0.00 | 0.01 | 0.00 | 87 | 1012.2 |
| 20260903103700 | 80 | 129 | 3.0 | 6.0 | 0.00 | 0.01 | 0.00 | 87 | 1012.1 |
| 20260903103200 | 80 | 264 | 3.0 | 6.0 | 0.00 | 0.01 | 0.00 | 87 | 1012.1 |
| 20260903102702 | 80 | 242 | 3.0 | 6.0 | 0.00 | 0.01 | 0.00 | 87 | 1012.1 |
| 20260903102201 | 80 | 283 | 2.0 | 6.0 | 0.00 | 0.01 | 0.00 | 87 | 1012.1 |
| 20260903101701 | 80 | 42 | 2.0 | 7.0 | 0.00 | 0.01 | 0.00 | 87 | 1012.1 |
| 20260903101200 | 80 | 213 | 3.0 | 7.0 | 0.00 | 0.01 | 0.00 | 87 | 1012.0 |
| 20260903100703 | 80 | 174 | 3.0 | 7.0 | 0.00 | 0.01 | 0.00 | 87 | 1012.0 |
| 20260903100201 | 80 | 270 | 3.0 | 7.0 | 0.00 | 0.01 | 0.00 | 87 | 1012.0 |
| 20260903095943 | 80 | 149 | 3.0 | 7.0 | 0.00 | 0.01 | 0.00 | 86 | 1011.9 |
| 20260903095201 | 80 | 147 | 3.0 | 7.0 | 0.00 | 0.01 | 0.00 | 86 | 1012.0 |
| 20260903094943 | 80 | 269 | 4.0 | 8.0 | 0.00 | 0.01 | 0.00 | 86 | 1012.1 |
| 20260903094201 | 80 | 232 | 4.0 | 9.0 | 0.00 | 0.01 | 0.00 | 86 | 1012.1 |
| 20260903093700 | 80 | 284 | 4.0 | 9.0 | 0.00 | 0.01 | 0.00 | 86 | 1012.1 |
| 20260903093200 | 80 | 259 | 4.0 | 9.0 | 0.00 | 0.01 | 0.00 | 86 | 1012.2 |
| 20260903092702 | 80 | 246 | 3.0 | 6.0 | 0.00 | 0.01 | 0.00 | 86 | 1012.3 |
| 20260903092201 | 80 | 271 | 3.0 | 7.0 | 0.00 | 0.01 | 0.00 | 86 | 1012.3 |
| 20260903091701 | 80 | 197 | 3.0 | 7.0 | 0.00 | 0.01 | 0.00 | 86 | 1012.3 |
| 20260903091432 | 80 | 297 | 2.0 | 5.0 | 0.00 | 0.01 | 0.00 | 85 | 1012.3 |
| 20260903090927 | 80 | 204 | 3.0 | 8.0 | 0.00 | 0.01 | 0.00 | 85 | 1012.3 |
| 20260903090201 | 80 | 222 | 3.0 | 8.0 | 0.00 | 0.01 | 0.00 | 85 | 1012.4 |
| 20260903085701 | 80 | 233 | 3.0 | 7.0 | 0.00 | 0.01 | 0.00 | 85 | 1012.3 |
| 20260903085201 | 80 | 46 | 3.0 | 7.0 | 0.00 | 0.01 | 0.00 | 85 | 1012.3 |
| 20260903084701 | 80 | 235 | 3.0 | 8.0 | 0.00 | 0.01 | 0.00 | 85 | 1012.4 |
| 20260903084201 | 80 | 315 | 4.0 | 8.0 | 0.00 | 0.01 | 0.00 | 85 | 1012.3 |
| 20260903083944 | 80 | 152 | 4.0 | 8.0 | 0.00 | 0.01 | 0.00 | 85 | 1012.4 |
| 20260903083201 | 80 | 203 | 3.0 | 6.0 | 0.00 | 0.01 | 0.00 | 84 | 1012.4 |
| 20260903082705 | 81 | 218 | 3.0 | 6.0 | 0.00 | 0.01 | 0.00 | 84 | 1012.4 |
| 20260903082201 | 81 | 185 | 3.0 | 7.0 | 0.00 | 0.01 | 0.00 | 84 | 1012.4 |
| 20260903081700 | 81 | 233 | 3.0 | 7.0 | 0.00 | 0.01 | 0.00 | 84 | 1012.4 |
| 20260903081445 | 81 | 180 | 3.0 | 7.0 | 0.00 | 0.01 | 0.00 | 83 | 1012.4 |
| 20260903080943 | 81 | 269 | 4.0 | 9.0 | 0.00 | 0.01 | 0.00 | 83 | 1012.4 |
| 20260903080201 | 81 | 202 | 4.0 | 9.0 | 0.00 | 0.01 | 0.00 | 83 | 1012.4 |
| 20260903075701 | 81 | 202 | 3.0 | 7.0 | 0.00 | 0.01 | 0.00 | 83 | 1012.4 |
| 20260903075446 | 81 | 189 | 3.0 | 7.0 | 0.00 | 0.01 | 0.00 | 83 | 1012.4 |
| 20260903074730 | 81 | 208 | 2.0 | 4.0 | 0.00 | 0.01 | 0.00 | 82 | 1012.4 |
| 20260903074719 | 81 | 280 | 3.0 | 6.0 | 0.00 | 0.01 | 0.00 | 82 | 1012.4 |
| 20260903073700 | 81 | 196 | 2.0 | 6.0 | 0.00 | 0.01 | 0.00 | 82 | 1012.4 |
| 20260903073429 | 81 | 244 | 2.0 | 6.0 | 0.00 | 0.01 | 0.00 | 81 | 1012.4 |
| 20260903072949 | 80 | 307 | 2.0 | 6.0 | 0.00 | 0.01 | 0.00 | 81 | 1012.5 |
| 20260903072201 | 80 | 150 | 2.0 | 5.0 | 0.00 | 0.01 | 0.00 | 81 | 1012.5 |
| 20260903071939 | 80 | 230 | 2.0 | 3.0 | 0.00 | 0.01 | 0.00 | 80 | 1012.5 |
| 20260903071658 | 80 | 268 | 2.0 | 4.0 | 0.00 | 0.01 | 0.00 | 80 | 1012.6 |
| 20260903070700 | 81 | 213 | 2.0 | 6.0 | 0.00 | 0.01 | 0.00 | 80 | 1012.6 |
| 20260903070201 | 81 | 221 | 2.0 | 6.0 | 0.00 | 0.01 | 0.00 | 80 | 1012.7 |
| 20260903065701 | 80 | 209 | 2.0 | 5.0 | 0.00 | 0.01 | 0.00 | 80 | 1012.7 |
| 20260903065201 | 80 | 73 | 2.0 | 4.0 | 0.00 | 0.01 | 0.00 | 80 | 1012.6 |
| 20260903064701 | 80 | 55 | 2.0 | 4.0 | 0.00 | 0.01 | 0.00 | 80 | 1012.7 |
| 20260903064201 | 81 | 167 | 2.0 | 4.0 | 0.00 | 0.01 | 0.00 | 80 | 1012.8 |
| 20260903063924 | 81 | 121 | 1.0 | 4.0 | 0.00 | 0.01 | 0.00 | 80 | 1012.8 |
| 20260903063200 | 81 | 303 | 2.0 | 4.0 | 0.00 | 0.01 | 0.00 | 80 | 1012.9 |
| 20260903062701 | 81 | 289 | 2.0 | 4.0 | 0.00 | 0.01 | 0.00 | 80 | 1012.9 |
| 20260903062201 | 81 | 256 | 2.0 | 3.0 | 0.00 | 0.01 | 0.00 | 80 | 1012.9 |
| 20260903061701 | 81 | 76 | 2.0 | 4.0 | 0.00 | 0.01 | 0.00 | 79 | 1012.8 |
| 20260903061201 | 81 | 208 | 2.0 | 4.0 | 0.00 | 0.01 | 0.00 | 79 | 1012.8 |
| 20260903060700 | 81 | 260 | 2.0 | 4.0 | 0.00 | 0.01 | 0.00 | 79 | 1012.8 |
| 20260903060205 | 81 | 95 | 1.0 | 4.0 | 0.00 | 0.01 | 0.00 | 80 | 1012.8 |
| 20260903055702 | 80 | 254 | 2.0 | 4.0 | 0.00 | 0.01 | 0.00 | 80 | 1012.9 |
| 20260903055201 | 80 | 276 | 2.0 | 4.0 | 0.00 | 0.01 | 0.00 | 80 | 1012.9 |
| 20260903054702 | 80 | 105 | 2.0 | 4.0 | 0.00 | 0.01 | 0.00 | 80 | 1012.9 |
| 20260903054200 | 80 | 128 | 2.0 | 5.0 | 0.00 | 0.01 | 0.00 | 81 | 1012.8 |
| 20260903053702 | 80 | 258 | 2.0 | 5.0 | 0.00 | 0.01 | 0.00 | 81 | 1012.7 |
| 20260903053202 | 80 | 176 | 2.0 | 4.0 | 0.00 | 0.01 | 0.00 | 81 | 1012.7 |
| 20260903052701 | 80 | 237 | 2.0 | 4.0 | 0.00 | 0.01 | 0.00 | 81 | 1012.7 |
| 20260903052201 | 80 | 122 | 2.0 | 4.0 | 0.00 | 0.01 | 0.00 | 81 | 1012.8 |
| 20260903051924 | 80 | 299 | 2.0 | 5.0 | 0.00 | 0.01 | 0.00 | 81 | 1012.8 |
| 20260903051201 | 80 | 338 | 2.0 | 5.0 | 0.00 | 0.01 | 0.00 | 82 | 1012.8 |
| 20260903050702 | 80 | 245 | 2.0 | 5.0 | 0.00 | 0.01 | 0.00 | 82 | 1012.8 |
| 20260903050201 | 80 | 97 | 2.0 | 4.0 | 0.00 | 0.01 | 0.00 | 82 | 1012.8 |
| 20260903045702 | 80 | 141 | 2.0 | 4.0 | 0.00 | 0.01 | 0.01 | 81 | 1012.7 |
| 20260903045424 | 80 | 103 | 2.0 | 5.0 | 0.00 | 0.01 | 0.01 | 81 | 1012.8 |
| 20260903044933 | 80 | 268 | 2.0 | 5.0 | 0.00 | 0.01 | 0.01 | 81 | 1012.7 |
| 20260903044201 | 80 | 136 | 2.0 | 5.0 | 0.00 | 0.01 | 0.01 | 81 | 1012.7 |
| 20260903043701 | 80 | 111 | 2.0 | 5.0 | 0.00 | 0.01 | 0.01 | 80 | 1012.6 |
| 20260903043202 | 80 | 140 | 2.0 | 6.0 | 0.00 | 0.01 | 0.01 | 80 | 1012.6 |
| 20260903042703 | 80 | 298 | 2.0 | 6.0 | 0.00 | 0.01 | 0.01 | 79 | 1012.7 |
| 20260903042203 | 81 | 127 | 3.0 | 7.0 | 0.00 | 0.01 | 0.01 | 79 | 1012.7 |
| 20260903041702 | 81 | 120 | 4.0 | 8.0 | 0.00 | 0.01 | 0.01 | 78 | 1012.7 |
| 20260903041202 | 81 | 135 | 3.0 | 8.0 | 0.00 | 0.01 | 0.01 | 77 | 1012.7 |
| 20260903040949 | 82 | 6 | 2.0 | 6.0 | 0.00 | 0.01 | 0.01 | 76 | 1012.7 |
| 20260903040201 | 82 | 320 | 2.0 | 5.0 | 0.00 | 0.01 | 0.01 | 74 | 1012.7 |
| 20260903035701 | 82 | 102 | 2.0 | 5.0 | 0.00 | 0.01 | 0.01 | 72 | 1012.7 |
| 20260903035202 | 83 | 344 | 3.0 | 6.0 | 0.00 | 0.01 | 0.01 | 70 | 1012.8 |
| 20260903034702 | 83 | 196 | 3.0 | 6.0 | 0.00 | 0.01 | 0.01 | 70 | 1012.8 |
| 20260903034201 | 83 | 133 | 2.0 | 6.0 | 0.00 | 0.01 | 0.01 | 70 | 1012.7 |
| 20260903033701 | 83 | 317 | 3.0 | 7.0 | 0.00 | 0.01 | 0.01 | 69 | 1012.8 |
| 20260903033201 | 84 | 22 | 4.0 | 7.0 | 0.00 | 0.01 | 0.01 | 67 | 1012.8 |
| 20260903032702 | 84 | 307 | 4.0 | 8.0 | 0.00 | 0.01 | 0.01 | 67 | 1012.8 |
| 20260903032204 | 84 | 73 | 4.0 | 8.0 | 0.00 | 0.01 | 0.01 | 66 | 1012.8 |
| 20260903031704 | 84 | 80 | 4.0 | 8.0 | 0.00 | 0.01 | 0.01 | 66 | 1012.7 |
| 20260903031200 | 85 | 47 | 4.0 | 0.0 | 0.00 | 0.01 | 0.01 | 64 | 1012.1 |
| 20260903031030 | 0 | 69 | 4.0 | 4.0 | 0.00 | 0.01 | 0.01 | ||
| 20260903030530 | 85 | 69 | 4.0 | 7.0 | 0.00 | 0.01 | 0.01 | 64 | 1012.2 |
| 20260903030028 | 85 | 42 | 4.0 | 7.0 | 0.00 | 0.01 | 0.01 | 64 | 1012.2 |
| 20260903025532 | 0 | 0.0 | 0.0 | 0.00 | 0.00 | 0.00 | |||
| 20260903025230 | 0 | 114 | 2.0 | 2.0 | 0.00 | 0.01 | 0.01 | ||
| 20260903024951 | 86 | 114 | 2.0 | 5.0 | 0.00 | 0.01 | 0.01 | 60 | 1011.8 |
| 20260903024214 | 86 | 49 | 2.0 | 5.0 | 0.00 | 0.01 | 0.01 | 60 | 1011.8 |
| 20260903023715 | 86 | 92 | 2.0 | 4.0 | 0.00 | 0.01 | 0.01 | 60 | 1011.6 |
| 20260903023214 | 87 | 95 | 2.0 | 5.0 | 0.00 | 0.01 | 0.01 | 58 | 1011.5 |
| 20260903022714 | 87 | 48 | 2.0 | 5.0 | 0.00 | 0.01 | 0.01 | 58 | 1011.4 |
| 20260903022214 | 87 | 354 | 2.0 | 7.0 | 0.00 | 0.01 | 0.01 | 57 | 1011.3 |
| 20260903021704 | 87 | 314 | 2.0 | 7.0 | 0.00 | 0.01 | 0.01 | 57 | 1011.2 |
| 20260903021202 | 88 | 77 | 1.0 | 2.0 | 0.00 | 0.01 | 0.01 | 56 | 1010.9 |
| 20260903020702 | 88 | 77 | 1.0 | 2.0 | 0.00 | 0.01 | 0.01 | 56 | 1010.9 |
| 20260903020201 | 88 | 0 | 0.0 | 2.0 | 0.00 | 0.01 | 0.01 | 56 | 1010.9 |
| 20260903015702 | 88 | 133 | 1.0 | 2.0 | 0.00 | 0.01 | 0.01 | 54 | 1010.5 |
| 20260903015202 | 88 | 133 | 1.0 | 3.0 | 0.00 | 0.01 | 0.01 | 54 | 1010.5 |
| 20260903014630 | 88 | 352 | 1.0 | 3.0 | 0.00 | 0.01 | 0.01 | 54 | 1010.5 |
| 20260903014130 | 89 | 72 | 1.0 | 2.0 | 0.00 | 0.01 | 0.01 | 55 | 1010.5 |
| 20260903013630 | 89 | 0 | 1.0 | 2.0 | 0.00 | 0.01 | 0.01 | 54 | 1010.4 |